STARLINK-34686 (65087 NORAD) Tracking and Keplerian Element Data

This shows tracking and keplerian element data for the satellite.

Feedback or suggestion? Click here.




ElementValue
Catalog65087
NameSTARLINK-34686
Epoch Orbit2120
Epoch Day353.53838164
Epoch Year2025
RAAN39.2917
Inclination53.1606
Eccentricity0.0001183
Argument of Perigee90.2497
Mean Anonmoly269.8639
Mean Motion15.30194294
Decay Rate0.0001764
L11 65087U 25167K 25353.53838164 .00017640 00000+0 60640-3 0 9999
L22 65087 53.1606 39.2917 0001183 90.2497 269.8639 15.30194294 21200



Live tracking and technical data element details for STARLINK-34686 (NORAD 65087). STARLINK-34686 can be tracked NOW for your location showing map with azimuth and elevation plus other details from your city location.







IsCatalogInMostPopularTable: catalog: 65087, numindb: 3
Update: records affected: 1



GetName: 65087 STARLINK-34686

Hit Count: updated at: Tue, 17 Feb 2026 12:35:02 GMT